Sisseton, SD

3:40 AM CDT on May 30, 2017 (GMT -0500)
Sisseton

Weather History for K8D3 - October, 2013

Change the Weather History Date:

Sunday, October 27, 2013

  Actual Average Record
Temperature  
Mean Temperature 42 °F 41 °F  
Max Temperature 52 °F 51 °F 82 °F (1983)
Min Temperature 32 °F 32 °F 13 °F (1976)
Degree Days  
Heating Degree Days 23 24  
Month to date heating degree days 509 483  
Since 1 July heating degree days 655 728  
Cooling Degree Days 0 0  
Month to date cooling degree days 0 0  
Year to date cooling degree days 625 523  
Moisture  
Dew Point 29 °F    
Average Humidity 60    
Maximum Humidity 75    
Minimum Humidity 44    
Precipitation  
Precipitation 0.00 in 0.04 in 0.62 in (1971)
Month to date precipitation 5.87 1.90  
Year to date precipitation 27.18 21.18  
Snow  
Snow 0.00 in - - ()
Month to date snowfall 0.0  
Since 1 July snowfall 0.0  
Snow Depth 0.00 in    
Sea Level Pressure  
Sea Level Pressure 29.96 in    
Wind  
Wind Speed 15 mph (NNW)    
Max Wind Speed 26 mph    
Max Gust Speed 35 mph    
T = Trace of Precipitation, MM = Missing Value Source: NWS Daily Summary

Daily Weather History Graph

Daily Weather History Graph

Search for Another Location

Airport or City:

Trip Planner

Search our weather history database for the weather conditions in past years. The results will help you decide how hot, cold, wet, or windy it might be!

Date:

Astronomy

Oct. 27, 2013 Rise Set
Actual Time 8:01 AM CDT 6:21 PM CDT
Civil Twilight 7:30 AM CDT 6:52 PM CDT
Nautical Twilight 6:55 AM CDT 7:27 PM CDT
Astronomical Twilight 6:21 AM CDT 8:01 PM CDT
Moon 12:39 AM CDT (10/27) 2:50 PM CDT (10/27)
Length of Visible Light 11h 21m
Length of Day
10h 20m
Last Quarter, 43% of the Moon is Illuminated
Oct 27
Last Quarter
Nov 3
New
Nov 9
First Quarter
Nov 17
Full
Nov 25
Last Quarter

Hourly Weather History & Observations

Time (CDT) Temp. Windchill Dew Point Humidity Pressure Visibility Wind Dir Wind Speed Gust Speed Precip Events Conditions
12:56 AM 34.0 °F 26.0 °F 26.1 °F 73% 29.95 in - South 10.4 mph - N/A   Unknown
1:56 AM 41.0 °F 35.8 °F 27.0 °F 57% 29.91 in - South 8.1 mph - N/A   Unknown
2:56 AM 39.0 °F 32.8 °F 28.0 °F 65% 29.88 in - SW 9.2 mph - N/A   Unknown
3:56 AM 41.0 °F 32.5 °F 28.0 °F 60% 29.82 in - WSW 17.3 mph 26.5 mph N/A   Unknown
4:56 AM 42.1 °F 32.3 °F 27.0 °F 55% 29.79 in - West 24.2 mph 32.2 mph N/A   Unknown
5:56 AM 42.1 °F 34.5 °F 27.0 °F 55% 29.79 in - WSW 15.0 mph 23.0 mph N/A   Unknown
6:56 AM 41.0 °F 32.8 °F 28.0 °F 60% 29.78 in - West 16.1 mph 24.2 mph N/A   Unknown
7:56 AM 41.0 °F 37.1 °F 27.0 °F 57% 29.81 in - WNW 5.8 mph - N/A   Unknown
8:56 AM 42.1 °F 38.4 °F 28.9 °F 60% 29.84 in - West 5.8 mph - N/A   Unknown
9:56 AM 48.0 °F - 30.0 °F 50% 29.85 in - NW 12.7 mph - N/A   Unknown
10:56 AM 48.9 °F - 32.0 °F 52% 29.87 in - North 16.1 mph - N/A   Unknown
11:56 AM 48.9 °F - 32.0 °F 52% 29.90 in - North 16.1 mph - N/A   Unknown
12:56 PM 50.0 °F - 32.0 °F 50% 29.90 in - NNE 21.9 mph 25.3 mph N/A   Unknown
1:56 PM 51.1 °F - 32.0 °F 48% 29.91 in - North 16.1 mph - N/A   Unknown
2:56 PM 51.1 °F - 30.9 °F 46% 29.92 in - NNE 21.9 mph 26.5 mph N/A   Unknown
3:56 PM 48.9 °F - 30.0 °F 48% 29.96 in - NNE 21.9 mph 27.6 mph N/A   Unknown
4:56 PM 46.9 °F - 30.0 °F 52% 30.00 in - NNE 19.6 mph - N/A   Unknown
5:56 PM 44.1 °F 35.9 °F 28.9 °F 55% 30.04 in - NNE 19.6 mph 25.3 mph N/A   Unknown
6:56 PM 39.9 °F 32.1 °F 28.0 °F 63% 30.09 in - NNE 13.8 mph - N/A   Unknown
7:56 PM 37.9 °F 29.2 °F 27.0 °F 65% 30.12 in - NNE 15.0 mph - N/A   Unknown
8:56 PM 35.1 °F 26.9 °F 27.0 °F 72% 30.17 in - NNE 11.5 mph - N/A   Unknown
9:56 PM 34.0 °F 26.0 °F 27.0 °F 75% 30.19 in - NNE 10.4 mph - N/A   Unknown
10:56 PM 33.1 °F 24.4 °F 27.0 °F 78% 30.22 in - NNE 11.5 mph - N/A   Unknown
11:56 PM 33.1 °F 22.6 °F 27.0 °F 78% 30.25 in - NE 16.1 mph - N/A   Unknown